Showing default

SAL-E, 68458

Orbit data source: Space-Track

SAL-E, 68458 is a payload satellite owned by Cal Poly (US) in SSO that was launched on Mon, 30 Mar 2026 UTC via an FALCON 9 launch vehicle from the Air Force Western Test Range (AFWTR). Payload-class satellites include a variety of spacecraft equipped with specific instruments for various scientific and technological missions. These include communications satellites like Starlink; space stations such as the ISS; scientific satellites like the Hubble; Earth observation satellites from companies like Planet Labs, Umbra, and HawkEye 360; GPS; miniature CubeSats for education and research; and military/defense satellites.

Loading next visibility...
Identifier
68458, 2026-067AU
Orbit
SSO
Country
Flag of USUS
Related business
Manufacturer
Cal Poly
Mission
Operational spacecraft
Bus & Motor
CUBESAT 3U, Unknown motor
Mass
~5 kg wet, ~5 kg dry
Launch date (UTC)
2026-03-30 (3 months ago)
Launch vehicle
FALCON 9
Launch site
Air Force Western Test Range (AFWTR)
Object type
Payload
Rocket body
Debris
Shape & HBR
Unknown shape, 0.1 m
Radar Cross Section
Medium (>0.1 m² and <1 m²)

Expand to show TLE details & history
Last TLE update: 2 days ago

TLE from 2 days ago
0 SAL-E
1 68458U 26067AU  26171.34842208  .00006555  00000-0  32732-3 0  9991
2 68458  97.4477 129.5972 0007844  71.1717 289.0367 15.17794593 12417
Epoch: 2026-06-20T08:21Z
TLE epoch observation values (Epoch: 2026-06-20T08:21:43.667Z)
Latitude
-0.00003°
Longitude
95.60093°
Altitude
513.834 km
Speed
7.608 km/s
True Right ascension
08h 38m 23s
True Declination
0° 00' 00"
Sunlit
Object was in daylight at epoch
Visualization orbit readout
Latitude
Unknown
Longitude
Unknown
Altitude
Unknown
Speed
Unknown
Apparent Right ascension
Unknown
Apparent Declination
Unknown
Sunlit
N/A
Visualization observer readout
Local Sidereal Time
15:16:13
Azimuth
Unknown
Elevation
Unknown
Doppler factor
Unknown
Orbital elements
Apogee altitude
514.881 km
Perigee altitude
504.075 km
Semi-major axis
6,887.615 km
Eccentricity
0.00078
Inclination
97.4477°
RAAN
129.5972°
Arg. of periapsis
71.1717°
True anomaly
288.9517°
Mean anomaly
289.0367°
Eccentric anomaly
288.9942°
Mean motion
3.79699 °/min
Orbital period
94.81 mins
BSTAR
0.00032732
Loading maneuver chart data...
Computing Atmospheric mass density...
Loading historical data...
Loading historical data...
Loading historical data...
Loading historical data...
Loading historical data...
Loading historical data...
Loading historical data...

Documentation

Showing up to 5 results
|